Weather in Narita

Japan     35°48′14″N   140°20′44″E
temp.,
°C
wind,
m/s
gust,
m/s
humid.,
%
clouds,
%
prec.,
mm/h
press.,
hPa
HPBL,
m
13 april, tue
tue1300:00+15s3746100 0.0 1028697
03:00+14s3862100 0.1 1026860
06:00+14s3967100 0.3 1025852
09:00+17s61054100 0.3 10221391
12:00+18s71155100 0.2 10181640
15:00+18ssw61266100 0.4 10161323
18:00+17ssw51276100 0.1 10151065
21:00+17ssw71380100 0.2 10141156
14 april, wed
wed1400:00+17ssw51288100 0.1 10121053
03:00+17ssw51386100 0.3 1009782
06:00+17s51388100 0.4 1008790
09:00+18ssw61392100 2.9 10061009
12:00+16nw3591100 3.8 1004321
15:00+15ne61086100 4.3 1004626
18:00+13ne71279100 0.6 1007933
21:00+11nne51168100 1.8 10121021
15 april, thu
thu1500:00+9ne6106994 0.5 1015833
03:00+9ne5104690 0.5 1017854
06:00+8nne4104018 0.0 1020716
09:00+13ne45241 0.0 10221392
12:00+15ene43220 0.0 10221722
15:00+16ene4325100 0.0 10221692
18:00+13ese5535100 0.0 10241211
21:00+12se2542100 0.0 10261037
16 april, fri
fri1600:00+12ese1450100 0.0 1026236
03:00
06:00+12e125765 0.0 102776
09:00+14se3548100 0.0 10271317
12:00+15se5648100 0.0 10261453
15:00+16se5648100 0.0 10241681
18:00+15sse475857 0.0 10241213
21:00+14sse3864100 0.0 1024710
17 april, sat
sat1700:00+14sse3871100 0.1 1022721
03:00+14sse3976100 0.3 1020583
06:00+15sse41077100 0.1 1018749
09:00+16s41075100 0.4 10171092
12:00+16sse41188100 2.6 1014814
15:00+16s51088100 7.6 1011804
18:00+15wsw2487100 0.1 1011244
21:00+14n1295100 0.1 101187